Probability
0 0 0 0 0 0 0 0 0 0 0 0 0 0 0 0 0 0 0 0 0 0 0 0 0 0 0 0 0 0 0 0 0 0 0 0 0 0 0 0 0 0 0
0 0 0 0 0 0 0 0 0 0 0 0 0 0 0 0 0 0 0 0 0 0 0 0 0 0 0 0 0 0 0 0 0 0 0 0 0 0 0 0 0 0 0
0 0 0 0 0 0 0 0 0 0 0 0 0 0 0 0 0 0 0 0 0 0 0 0 0 0 0 0 0 0 0 0 0 0 0 0 0 0 0 0 0 0 0
0 0 0 0 0 0 0 0 0 0 0 0 0 0 0 0 0 0 0 0 0 0 0 0 0 0 0 0 0 0 0 0 0 0 0 0 0 0 0 0 0 0 0
0 0 0 0 0 0 0 0 0 0 0 0 0 0 0 0 0 0 0 0 0 0 0 0 0 0 0 0 0 0 0 0 0 0 0 0 0 0 0 0 0 0 0
0 0 1 1 1 1 1 1 0 0 0 0 0 0 0 0 0 0 0 0 0 0 0 0 0 0 0 0 0 0 0 0 0 0 0 0 0 0 0 0 0 0 0
0 0 2 4 4 3 3 2 1 0 0 0 0 0 0 0 0 0 0 0 0 0 0 0 0 0 0 0 0 0 0 0 0 0 0 0 0 0 0 0 0 0 0
0 0 1 4 6 6 6 3 1 0 0 0 0 0 0 0 0 0 0 0 0 0 0 0 0 0 0 0 0 0 0 0 0 0 0 0 0 0 0 0 0 0 0
0 0 0 2 5 7 7 5 3 2 1 1 0 0 0 0 0 0 0 0 0 0 0 0 0 0 0 0 0 0 0 0 0 0 0 0 0 0 0 0 0 0 0
0 0 1 2 4 6 8 9 8 7 6 4 2 1 0 0 0 0 0 0 0 0 0 0 0 0 0 0 0 0 0 0 0 0 0 0 0 0 0 0 0 0 1
0 0 2 3 5 6 9 11 12 13 12 9 6 4 2 1 0 0 0 0 0 0 0 0 0 0 0 0 0 0 0 0 0 0 0 0 0 0 0 0 0 0 1
0 0 2 5 8 11 12 13 14 16 15 13 10 7 5 3 1 1 1 0 0 0 0 0 0 0 0 0 0 0 0 0 0 0 0 0 0 1 1 0 0 0 1
0 0 4 9 13 17 19 19 22 25 23 20 16 13 11 9 6 5 4 2 1 1 0 1 1 0 0 1 1 0 0 0 0 0 0 0 0 1 2 1 1 0 0
1 2 7 16 22 26 28 29 32 37 36 33 29 27 25 22 17 13 10 7 5 3 2 3 3 2 3 4 3 2 0 0 0 0 0 0 0 1 2 3 2 1 0
5 6 14 26 34 39 39 36 37 42 43 40 37 39 42 40 32 23 18 14 10 7 7 8 8 8 10 12 9 5 2 1 1 1 1 0 0 1 2 2 2 2 2
15 16 22 35 47 51 46 38 35 37 37 33 30 35 45 50 46 37 28 22 18 16 16 18 17 16 18 17 12 8 6 5 3 2 1 0 0 0 1 2 3 5 8
31 29 30 41 52 53 45 36 32 29 27 24 21 22 34 46 50 46 38 33 32 33 32 32 29 24 23 19 14 10 9 7 5 2 1 1 1 1 1 3 6 9 14
43 41 42 49 55 51 42 34 30 26 24 24 22 23 30 42 50 52 49 48 52 54 51 47 42 35 31 26 19 13 10 8 6 3 2 2 2 2 2 5 9 14 17
46 48 51 57 60 54 46 40 38 37 37 36 36 37 40 47 55 60 61 63 68 72 66 60 55 49 41 33 26 18 12 9 7 4 3 3 4 4 3 5 9 15 19
45 47 50 53 55 54 51 50 50 52 53 52 50 49 48 53 60 67 71 72 77 79 75 68 62 53 43 34 26 19 14 10 7 6 5 5 5 5 5 4 7 13 17
37 38 38 38 40 42 45 48 51 54 56 55 52 50 49 51 59 66 70 74 77 78 74 68 59 48 38 31 24 16 11 8 7 7 8 7 6 6 6 4 5 9 13
21 21 22 24 24 26 31 35 38 40 42 42 41 39 38 40 45 51 58 66 71 72 69 62 54 44 34 28 22 15 9 7 6 7 8 8 5 5 6 5 4 7 9
7 7 9 11 11 12 18 23 23 22 22 22 22 22 22 24 27 32 41 51 59 64 62 56 49 42 33 26 20 15 11 8 6 5 5 5 3 3 4 4 3 4 6
1 2 3 4 5 6 10 12 11 9 8 8 8 9 9 11 14 19 27 36 44 50 51 49 46 42 34 27 20 14 12 9 6 2 2 1 1 1 1 1 1 2 3
1 1 2 4 5 6 8 8 5 3 2 2 2 2 2 4 6 10 15 21 26 31 34 37 41 41 36 28 20 13 10 8 6 3 1 0 0 0 0 0 0 0 1
2 3 5 7 7 8 10 9 4 1 0 0 0 0 0 0 1 4 8 10 13 17 22 28 34 39 36 28 20 12 8 7 6 3 1 0 0 0 0 0 0 0 0
Wind_Speed
7 10 18 18 17 16 15 15 15 16 16 15 15 15 14 13 12 11 10 9 9 8 8 8 8 8 8 9 9 10 10 10 9 9 9 9 9 8 9 9 9 8 11
12 13 19 18 17 16 15 15 15 15 15 15 14 14 13 12 11 11 10 9 9 8 8 7 7 7 7 8 8 8 8 8 8 8 8 7 6 6 7 9 9 6 10
13 13 16 18 18 17 16 15 14 14 14 14 14 13 12 11 11 10 9 9 8 8 7 7 7 7 7 7 7 7 7 7 6 6 6 3 3 4 6 8 9 9 10
13 10 13 18 18 17 16 15 14 14 13 13 13 12 11 10 9 9 8 8 7 7 7 7 7 6 6 6 6 6 5 5 5 5 3 2 2 4 6 8 9 10 10
11 9 12 20 18 17 16 15 14 14 13 12 12 11 10 9 9 8 8 7 7 7 7 7 6 6 6 6 5 5 5 5 5 4 2 2 3 5 7 9 10 11 11
10 8 12 19 18 17 16 15 14 14 13 12 11 10 10 9 9 8 8 7 7 7 7 7 6 6 6 6 6 6 6 6 5 3 3 4 4 7 10 11 12 12 12
10 8 10 19 18 17 16 16 15 14 13 12 11 11 10 10 9 9 9 9 9 8 8 8 8 8 8 8 8 8 7 8 5 4 5 5 6 9 11 13 14 14 14
11 9 9 18 18 17 16 16 15 14 13 12 12 11 11 10 10 10 10 10 10 10 10 10 10 10 10 9 9 9 9 9 7 6 6 6 8 10 11 12 14 15 15
8 7 6 8 12 16 16 15 15 14 13 12 12 11 11 11 11 11 11 12 12 12 12 12 12 12 12 11 11 11 11 11 8 6 7 6 9 11 11 12 13 16 16
7 6 6 6 6 7 8 14 14 14 13 12 12 12 12 12 12 12 11 11 13 13 13 13 14 13 13 12 12 13 13 12 9 8 6 8 12 13 14 13 14 15 17
9 7 6 6 6 5 6 10 12 13 13 12 11 13 11 6 5 7 10 12 14 14 14 15 15 14 14 13 14 14 13 6 8 7 7 11 14 14 14 14 14 15 16
13 11 8 7 6 6 7 5 4 5 5 6 4 5 4 4 4 7 8 14 15 15 16 16 15 14 12 7 9 12 6 8 7 7 7 14 15 15 15 15 15 15 16
11 11 10 9 7 7 5 3 3 2 3 4 5 5 4 3 4 5 4 6 8 10 8 9 9 6 7 6 6 6 8 7 6 6 8 14 14 15 16 14 14 14 15
8 10 9 9 8 8 5 3 3 3 3 4 5 6 5 4 5 5 5 5 5 4 5 6 5 7 8 9 9 9 9 7 6 6 7 15 15 16 16 15 14 14 14
9 10 9 9 9 8 6 4 5 5 5 5 5 6 7 6 6 6 6 5 6 5 6 6 6 8 8 8 8 9 10 9 9 8 6 13 14 15 16 16 15 15 15
9 9 8 8 8 7 6 6 4 4 5 5 5 7 8 7 7 6 7 6 7 6 6 6 7 7 6 6 8 9 9 8 8 8 7 8 12 14 14 16 16 16 15
8 8 8 8 7 7 7 6 5 4 5 5 6 7 8 8 8 8 7 7 7 6 6 5 6 5 5 6 8 8 7 7 8 8 7 6 6 10 13 14 14 15 15
7 7 7 8 8 7 7 5 4 4 6 6 6 6 9 10 10 8 7 8 7 5 4 4 4 4 5 5 6 6 5 5 8 8 7 6 6 6 9 13 13 14 14
7 6 6 5 6 7 7 5 5 5 6 5 5 6 7 9 10 8 8 8 7 5 5 5 4 4 5 6 6 6 5 6 6 7 7 8 7 6 6 8 12 12 13
6 6 5 5 4 4 4 3 3 4 5 5 5 6 7 7 8 7 7 8 7 5 5 5 6 5 5 5 6 6 5 6 6 6 8 7 6 6 6 6 5 6 9
5 6 5 5 4 4 2 2 3 4 4 4 5 6 7 7 7 6 6 6 6 6 7 7 6 6 6 3 3 4 4 6 7 6 6 5 6 5 4 4 4 4 3
6 6 5 5 4 4 3 2 2 2 2 3 3 4 5 5 6 6 6 5 5 5 6 7 6 4 4 5 4 2 3 3 3 4 3 4 4 3 3 3 3 3 2
5 6 5 5 4 3 2 1 0 1 2 2 2 3 4 4 5 5 5 5 5 5 6 7 7 8 7 6 6 5 4 5 2 2 3 3 2 2 2 2 2 2 2
5 4 3 3 3 2 2 2 2 2 2 3 2 3 5 5 5 5 5 5 5 5 6 7 7 7 7 5 5 6 5 3 3 2 2 2 2 1 2 1 2 2 2
4 3 3 3 2 2 2 2 2 3 3 3 3 4 5 5 5 6 6 5 5 5 6 6 6 7 6 7 5 4 6 5 5 4 3 2 1 1 1 1 1 2 2
3 3 3 3 3 3 3 3 3 4 4 4 4 4 4 4 4 5 6 5 5 5 6 6 7 8 7 8 6 5 5 4 5 6 6 3 2 1 1 2 2 3 3
Wind_Direction
164 162 164 160 155 151 146 142 139 136 134 134 133 134 134 135 136 137 137 136 134 133 130 126 123 121 122 122 120 118 120 122 124 125 124 123 123 126 127 125 124 123 125
152 160 164 161 158 155 151 148 146 144 142 140 140 139 139 139 140 141 142 142 143 142 139 137 136 134 132 131 129 128 128 130 134 135 133 129 129 134 145 143 139 141 137
148 158 162 162 160 158 157 156 154 152 150 148 147 145 145 146 146 148 150 151 152 151 150 150 150 148 146 144 142 141 141 142 144 147 141 131 141 153 161 161 157 156 151
148 155 160 164 163 162 162 163 162 161 158 156 155 153 154 155 156 158 159 161 163 163 163 165 166 164 163 161 160 159 159 160 164 165 154 182 205 190 185 178 174 173 169
148 153 165 165 166 166 167 169 169 168 167 165 164 164 166 169 172 174 176 178 181 181 182 183 184 183 183 184 184 185 189 193 199 196 193 221 234 232 212 201 194 191 186
149 154 169 167 170 170 171 174 175 175 174 174 175 177 180 185 189 194 197 199 203 204 204 205 206 206 206 209 210 213 217 223 226 225 233 242 241 243 232 219 211 206 201
154 159 172 171 174 175 176 178 181 181 182 183 185 188 193 199 205 210 213 216 220 222 224 224 224 225 226 228 231 233 235 240 236 228 237 244 247 248 243 232 223 217 212
159 160 170 175 178 179 181 183 185 187 188 191 194 198 204 210 217 222 225 227 230 233 235 236 236 238 238 239 242 245 247 250 252 241 237 240 247 253 251 241 230 222 218
155 158 169 175 180 184 186 188 190 192 195 198 203 207 213 219 224 230 232 235 237 239 241 243 244 246 247 247 249 252 255 257 257 251 251 245 247 251 255 250 239 227 222
156 164 170 170 173 179 188 196 197 199 202 206 210 215 221 227 230 235 237 240 245 246 247 249 250 252 253 253 254 257 260 264 260 258 256 254 254 254 254 253 247 237 228
176 180 177 174 172 172 182 201 202 206 209 212 217 222 225 228 237 244 248 247 250 252 254 255 255 256 257 258 258 260 264 258 260 261 259 259 259 258 257 253 247 243 236
188 189 187 184 178 173 193 199 199 205 208 210 208 222 222 215 227 240 250 254 255 257 258 258 257 258 259 257 261 265 261 261 260 261 261 262 262 262 259 255 249 246 242
189 190 192 193 188 187 195 191 195 202 204 211 213 216 221 225 232 242 245 257 261 264 264 264 263 254 248 248 251 252 256 261 259 260 262 265 264 264 264 262 256 251 248
183 194 193 194 196 199 198 201 199 208 216 220 220 217 218 229 234 236 240 242 243 247 250 253 251 249 249 249 250 253 254 252 253 254 259 264 265 266 268 268 265 260 255
189 194 192 194 199 201 201 208 209 216 227 231 228 223 221 229 237 238 241 240 241 239 239 244 246 248 250 251 251 251 253 253 253 251 257 264 267 267 268 268 265 263 258
194 194 188 191 197 197 206 213 220 218 228 235 239 237 228 231 236 237 241 241 242 238 239 240 244 247 250 252 255 252 252 255 256 253 252 261 267 268 268 268 267 264 259
190 185 185 192 192 195 208 216 227 232 231 233 238 239 234 232 235 237 241 242 241 236 237 241 248 250 255 256 258 257 253 249 251 253 255 254 260 264 264 265 264 262 260
171 175 187 196 192 200 209 213 221 238 242 241 240 241 239 236 234 235 239 243 240 230 227 231 239 247 251 253 256 258 254 249 251 252 253 254 254 260 264 266 265 262 259
159 162 170 180 187 199 209 215 223 233 245 252 253 250 249 246 242 235 239 241 232 225 222 227 225 224 241 248 254 254 249 251 256 261 259 256 253 255 259 266 267 265 262
134 146 154 168 180 183 194 211 230 238 244 245 244 249 254 255 253 245 242 242 231 227 222 215 223 223 231 238 255 260 251 249 250 253 256 257 255 258 263 266 267 267 264
130 145 162 172 182 170 170 192 217 237 240 243 242 248 253 255 255 248 249 246 233 229 229 220 219 228 233 216 234 265 267 251 250 250 250 253 255 257 260 264 261 260 267
155 165 169 177 186 187 185 189 205 232 253 255 271 276 271 270 265 259 250 246 236 231 236 230 217 221 226 200 204 229 283 296 263 248 242 238 243 248 259 270 273 276 282
177 182 180 189 197 199 192 154 319 321 309 304 290 289 288 287 282 274 267 258 248 236 236 232 222 223 233 217 200 194 208 237 279 279 246 242 246 253 266 284 300 307 312
208 203 187 189 199 202 176 185 211 236 262 266 277 286 299 302 297 291 283 271 259 249 243 240 229 224 224 226 214 214 217 192 198 260 276 265 265 274 291 300 330 341 359
224 212 199 191 200 203 189 197 223 251 258 277 290 297 303 305 300 297 291 282 270 261 254 246 236 225 222 223 215 204 216 219 211 214 244 254 284 319 334 351 14 17 26
241 223 208 203 219 215 210 213 222 246 265 287 298 302 303 302 298 296 294 284 276 269 260 251 243 232 227 225 220 210 198 196 200 203 217 217 212 250 352 28 32 31 34